Schneifelwetter: Wetterstation Hallschlag, 537 m . NN
Wetterdaten: Dienstag, 10.03.2009
Datum Zeit Temp. A. Temp. 2 Feuchte A. Luftdruck Regen Wind Richtung Richtung Sonnenschein Helligkeit T Regen Taupunkt Windchill
10.03.2009 00:01 1,0 C 0,9 C 96 % 1012 hPa 0,0 l/m 17,3 km/h (3 Bft) W-SW22.5 250 0 min 0 lux 0,00 min 0,4 C -7,0 C
10.03.2009 00:16 1,0 C 0,9 C 96 % 1012 hPa 0,0 l/m 14,0 km/h (3 Bft) W-SW22.5 250 0 min 0 lux 0,00 min 0,4 C -5,2 C
10.03.2009 00:31 1,0 C 1,0 C 96 % 1012 hPa 0,3 l/m 16,5 km/h (3 Bft) W-SW 250 0 min 0 lux 15,00 min 0,4 C -6,6 C
10.03.2009 00:46 1,1 C 1,1 C 96 % 1012 hPa 0,0 l/m 17,3 km/h (3 Bft) W-SW22.5 250 0 min 0 lux 0,00 min 0,5 C -6,9 C
10.03.2009 01:01 1,2 C 1,2 C 96 % 1012 hPa 0,3 l/m 19,4 km/h (3 Bft) W-SW22.5 250 0 min 0 lux 15,00 min 0,6 C -7,8 C
10.03.2009 01:16 1,2 C 1,3 C 97 % 1012 hPa 0,0 l/m 29,9 km/h (5 Bft) SW45 230 0 min 0 lux 0,00 min 0,8 C -11,7 C
10.03.2009 01:31 1,2 C 1,3 C 96 % 1012 hPa 0,0 l/m 15,8 km/h (3 Bft) W-SW22.5 250 0 min 0 lux 0,00 min 0,6 C -6,0 C
10.03.2009 01:46 1,2 C 1,3 C 96 % 1012 hPa 0,3 l/m 16,7 km/h (3 Bft) W-SW22.5 245 0 min 0 lux 15,00 min 0,6 C -6,5 C
10.03.2009 02:01 1,2 C 1,3 C 96 % 1012 hPa 0,0 l/m 20,1 km/h (4 Bft) W-SW22.5 255 0 min 0 lux 0,00 min 0,6 C -8,1 C
10.03.2009 02:16 1,3 C 1,3 C 97 % 1012 hPa 0,0 l/m 17,8 km/h (3 Bft) W-SW22.5 250 0 min 0 lux 0,00 min 0,9 C -6,9 C
10.03.2009 02:31 1,3 C 1,3 C 97 % 1012 hPa 0,0 l/m 18,6 km/h (3 Bft) W-SW22.5 245 0 min 0 lux 0,00 min 0,9 C -7,3 C
10.03.2009 02:46 1,3 C 1,3 C 97 % 1012 hPa 0,3 l/m 17,9 km/h (3 Bft) W-SW22.5 240 0 min 0 lux 15,00 min 0,9 C -7,0 C
10.03.2009 03:01 1,3 C 1,2 C 97 % 1012 hPa 0,0 l/m 22,8 km/h (4 Bft) SW45 230 0 min 0 lux 0,00 min 0,9 C -9,1 C
10.03.2009 03:16 1,4 C 1,3 C 97 % 1011 hPa 0,0 l/m 16,5 km/h (3 Bft) SW22.5 235 0 min 0 lux 0,00 min 1,0 C -6,1 C
10.03.2009 03:31 1,4 C 1,2 C 97 % 1011 hPa 0,0 l/m 19,6 km/h (3 Bft) W-SW45 240 0 min 0 lux 0,00 min 1,0 C -7,6 C
10.03.2009 03:46 1,3 C 1,1 C 97 % 1011 hPa 0,3 l/m 18,8 km/h (3 Bft) SW22.5 215 0 min 0 lux 15,00 min 0,9 C -7,4 C
10.03.2009 04:01 1,0 C 0,9 C 97 % 1011 hPa 0,3 l/m 22,9 km/h (4 Bft) S-SW22.5 210 0 min 0 lux 15,00 min 0,6 C -9,6 C
10.03.2009 04:16 0,7 C 0,6 C 97 % 1011 hPa 0,0 l/m 21,5 km/h (4 Bft) SW22.5 220 0 min 0 lux 0,00 min 0,3 C -9,4 C
10.03.2009 04:31 0,5 C 0,4 C 97 % 1011 hPa 0,0 l/m 22,8 km/h (4 Bft) W-SW22.5 245 0 min 0 lux 0,00 min 0,1 C -10,2 C
10.03.2009 04:46 0,3 C 0,2 C 98 % 1011 hPa 0,0 l/m 15,7 km/h (3 Bft) W-SW22.5 245 0 min 0 lux 0,00 min 0,0 C -7,0 C
10.03.2009 05:01 0,3 C 0,2 C 98 % 1011 hPa 0,3 l/m 17,9 km/h (3 Bft) SW45 230 0 min 0 lux 15,00 min 0,0 C -8,2 C
10.03.2009 05:16 0,4 C 0,2 C 98 % 1011 hPa 0,0 l/m 18,3 km/h (3 Bft) W-SW22.5 245 0 min 0 lux 0,00 min 0,1 C -8,3 C
10.03.2009 05:31 0,5 C 0,2 C 99 % 1011 hPa 0,3 l/m 22,8 km/h (4 Bft) W-SW45 240 0 min 0 lux 15,00 min 0,4 C -10,2 C
10.03.2009 05:46 0,5 C 0,3 C 99 % 1010 hPa 0,3 l/m 27,4 km/h (4 Bft) W-SW22.5 240 0 min 0 lux 15,00 min 0,4 C -11,9 C
10.03.2009 06:01 0,4 C 0,2 C 99 % 1010 hPa 0,0 l/m 27,0 km/h (4 Bft) SW45 230 0 min 0 lux 0,00 min 0,3 C -11,9 C
10.03.2009 06:16 0,3 C 0,1 C 99 % 1010 hPa 0,0 l/m 25,8 km/h (4 Bft) SW45 225 0 min 0 lux 0,00 min 0,2 C -11,6 C
10.03.2009 06:31 0,3 C 0,1 C 99 % 1010 hPa 0,0 l/m 26,8 km/h (4 Bft) SW45 230 0 min 0 lux 0,00 min 0,2 C -12,0 C
10.03.2009 06:46 0,3 C 0,1 C 99 % 1010 hPa 0,0 l/m 22,9 km/h (4 Bft) SW45 230 0 min 0 lux 0,00 min 0,2 C -10,5 C
10.03.2009 07:01 0,4 C 0,2 C 99 % 1010 hPa 0,0 l/m 23,5 km/h (4 Bft) SW22.5 235 0 min 71 lux 0,00 min 0,3 C -10,6 C
10.03.2009 07:16 0,5 C 0,3 C 99 % 1010 hPa 0,0 l/m 23,0 km/h (4 Bft) SW67.5 225 0 min 254 lux 0,00 min 0,4 C -10,3 C
10.03.2009 07:31 0,7 C 0,5 C 99 % 1010 hPa 0,9 l/m 27,1 km/h (4 Bft) SW45 230 0 min 664 lux 15,00 min 0,6 C -11,5 C
10.03.2009 07:46 0,7 C 0,5 C 99 % 1010 hPa 0,0 l/m 30,3 km/h (5 Bft) W-SW45 250 0 min 693 lux 0,00 min 0,6 C -12,5 C
10.03.2009 08:01 0,7 C 0,6 C 99 % 1009 hPa 0,0 l/m 23,5 km/h (4 Bft) SW45 230 0 min 947 lux 0,00 min 0,6 C -10,2 C
10.03.2009 08:16 0,9 C 0,7 C 99 % 1009 hPa 0,3 l/m 29,5 km/h (5 Bft) SW45 230 0 min 2,36 klux 15,00 min 0,8 C -12,0 C
10.03.2009 08:31 1,0 C 0,8 C 99 % 1009 hPa 0,0 l/m 22,1 km/h (4 Bft) W-SW45 240 0 min 2,99 klux 0,00 min 0,9 C -9,2 C
10.03.2009 08:46 1,1 C 0,9 C 99 % 1009 hPa 0,0 l/m 23,6 km/h (4 Bft) SW45 215 0 min 3,93 klux 0,00 min 1,0 C -9,7 C
10.03.2009 09:01 1,2 C 1,0 C 99 % 1009 hPa 0,3 l/m 28,9 km/h (5 Bft) SW45 225 0 min 5,31 klux 15,00 min 1,1 C -11,4 C
10.03.2009 09:16 1,2 C 1,0 C 99 % 1009 hPa 0,0 l/m 30,5 km/h (5 Bft) SW45 215 0 min 4,99 klux 0,00 min 1,1 C -11,9 C
10.03.2009 09:31 1,4 C 1,2 C 99 % 1008 hPa 0,3 l/m 27,4 km/h (4 Bft) SW45 230 0 min 5,62 klux 15,00 min 1,3 C -10,6 C
10.03.2009 09:46 1,5 C 1,4 C 99 % 1008 hPa 0,0 l/m 30,5 km/h (5 Bft) S-SW22.5 210 0 min 8,56 klux 0,00 min 1,4 C -11,4 C
10.03.2009 10:01 1,8 C 1,6 C 99 % 1008 hPa 0,0 l/m 31,3 km/h (5 Bft) SW22.5 215 0 min 10,9 klux 0,00 min 1,7 C -11,2 C
10.03.2009 10:16 1,9 C 1,7 C 99 % 1007 hPa 0,0 l/m 28,8 km/h (4 Bft) S-SW45 210 0 min 10,7 klux 0,00 min 1,8 C -10,4 C
10.03.2009 10:31 2,1 C 1,9 C 99 % 1007 hPa 0,0 l/m 26,2 km/h (4 Bft) SW45 215 0 min 13,4 klux 0,00 min 2,0 C -9,3 C
10.03.2009 10:46 2,2 C 2,0 C 98 % 1007 hPa 0,0 l/m 29,0 km/h (5 Bft) SW45 225 0 min 12,8 klux 0,00 min 1,9 C -10,0 C
10.03.2009 11:01 2,2 C 2,1 C 98 % 1007 hPa 0,0 l/m 31,7 km/h (5 Bft) SW45 225 0 min 14,7 klux 0,00 min 1,9 C -10,8 C
10.03.2009 11:16 2,2 C 2,1 C 98 % 1007 hPa 0,0 l/m 22,3 km/h (4 Bft) S-SW45 205 0 min 10,5 klux 0,00 min 1,9 C -7,7 C
10.03.2009 11:31 2,2 C 2,1 C 98 % 1006 hPa 1,2 l/m 30,6 km/h (5 Bft) SW45 220 0 min 12,9 klux 15,00 min 1,9 C -10,5 C
10.03.2009 11:46 2,3 C 2,3 C 98 % 1006 hPa 0,0 l/m 28,8 km/h (4 Bft) SW45 220 0 min 14,1 klux 0,00 min 2,0 C -9,8 C
10.03.2009 12:00 2,4 C 2,3 C 97 % 1006 hPa 0,6 l/m 38,1 km/h (5 Bft) SW22.5 220 0 min 16,6 klux 14,00 min 2,0 C -12,0 C
10.03.2009 12:16 2,2 C 2,2 C 97 % 1006 hPa 0,3 l/m 37,0 km/h (5 Bft) SW45 225 0 min 13,8 klux 16,00 min 1,8 C -12,1 C
10.03.2009 12:31 2,2 C 2,1 C 97 % 1006 hPa 0,6 l/m 37,3 km/h (5 Bft) SW45 225 0 min 13,4 klux 15,00 min 1,8 C -12,1 C
10.03.2009 12:46 2,3 C 2,3 C 97 % 1005 hPa 0,3 l/m 34,9 km/h (5 Bft) SW45 215 0 min 18,6 klux 15,00 min 1,9 C -11,4 C
10.03.2009 13:01 2,5 C 2,4 C 97 % 1005 hPa 0,3 l/m 32,7 km/h (5 Bft) SW45 225 0 min 17,1 klux 15,00 min 2,1 C -10,6 C
10.03.2009 13:16 2,4 C 2,3 C 97 % 1005 hPa 0,3 l/m 33,9 km/h (5 Bft) SW45 230 0 min 15,7 klux 15,00 min 2,0 C -11,1 C
10.03.2009 13:31 2,4 C 2,3 C 97 % 1005 hPa 0,3 l/m 32,5 km/h (5 Bft) SW45 230 0 min 17,5 klux 15,00 min 2,0 C -10,7 C
10.03.2009 13:45 2,1 C 1,9 C 96 % 1004 hPa 0,3 l/m 39,1 km/h (6 Bft) W-SW45 240 0 min 11,2 klux 14,00 min 1,5 C -12,6 C
10.03.2009 14:01 1,8 C 1,5 C 97 % 1004 hPa 0,9 l/m 26,5 km/h (4 Bft) SW45 230 0 min 17,2 klux 16,00 min 1,4 C -9,8 C
10.03.2009 14:16 1,8 C 1,6 C 97 % 1004 hPa 0,0 l/m 31,5 km/h (5 Bft) W-SW45 240 0 min 23,9 klux 0,00 min 1,4 C -11,3 C
10.03.2009 14:31 1,8 C 1,5 C 97 % 1004 hPa 0,3 l/m 25,5 km/h (4 Bft) W-SW45 240 0 min 15,1 klux 15,00 min 1,4 C -9,5 C
10.03.2009 14:46 1,7 C 1,4 C 97 % 1004 hPa 0,3 l/m 26,1 km/h (4 Bft) SW45 215 0 min 21,0 klux 15,00 min 1,3 C -9,8 C
10.03.2009 15:01 1,6 C 1,4 C 97 % 1004 hPa 0,3 l/m 31,5 km/h (5 Bft) W-SW22.5 250 0 min 14,1 klux 15,00 min 1,2 C -11,6 C
10.03.2009 15:16 1,7 C 1,5 C 97 % 1004 hPa 0,3 l/m 28,8 km/h (4 Bft) SW45 225 0 min 13,2 klux 15,00 min 1,3 C -10,7 C
10.03.2009 15:31 1,8 C 1,5 C 97 % 1004 hPa 0,0 l/m 33,7 km/h (5 Bft) SW45 230 0 min 11,1 klux 0,00 min 1,4 C -11,9 C
10.03.2009 15:46 1,7 C 1,4 C 98 % 1004 hPa 0,0 l/m 26,6 km/h (4 Bft) SW45 235 0 min 9,4 klux 0,00 min 1,4 C -10,0 C
10.03.2009 16:01 1,9 C 1,6 C 98 % 1004 hPa 0,3 l/m 27,5 km/h (4 Bft) SW45 235 0 min 10,4 klux 15,00 min 1,6 C -10,0 C
10.03.2009 16:16 2,1 C 1,9 C 99 % 1003 hPa 0,0 l/m 31,2 km/h (5 Bft) W-SW22.5 250 0 min 6,34 klux 0,00 min 2,0 C -10,8 C
10.03.2009 16:31 2,3 C 2,0 C 99 % 1003 hPa 0,3 l/m 27,6 km/h (4 Bft) W-SW22.5 250 0 min 7,49 klux 15,00 min 2,2 C -9,5 C
10.03.2009 16:46 2,4 C 2,2 C 99 % 1003 hPa 0,0 l/m 29,1 km/h (5 Bft) W-SW22.5 250 0 min 5,63 klux 0,00 min 2,3 C -9,8 C
10.03.2009 17:01 2,6 C 2,5 C 99 % 1004 hPa 0,3 l/m 26,9 km/h (4 Bft) W-SW22.5 250 0 min 7,60 klux 15,00 min 2,5 C -8,8 C
10.03.2009 17:16 2,9 C 2,9 C 99 % 1004 hPa 0,3 l/m 22,5 km/h (4 Bft) W-SW22.5 250 0 min 6,68 klux 15,00 min 2,8 C -6,9 C
10.03.2009 17:30 3,1 C 3,1 C 99 % 1004 hPa 0,0 l/m 19,1 km/h (3 Bft) W-SW22.5 245 0 min 5,21 klux 0,00 min 3,0 C -5,2 C
10.03.2009 17:46 3,2 C 3,2 C 99 % 1004 hPa 0,0 l/m 21,0 km/h (4 Bft) W-SW22.5 255 0 min 1,92 klux 0,00 min 3,1 C -5,9 C
10.03.2009 18:01 3,4 C 3,3 C 99 % 1004 hPa 0,0 l/m 23,5 km/h (4 Bft) W-SW45 245 0 min 744 lux 0,00 min 3,3 C -6,6 C
10.03.2009 18:16 3,7 C 3,7 C 99 % 1004 hPa 0,3 l/m 27,6 km/h (4 Bft) W22.5 265 0 min 392 lux 15,00 min 3,6 C -7,5 C
10.03.2009 18:31 4,1 C 4,0 C 99 % 1004 hPa 0,0 l/m 34,4 km/h (5 Bft) W22.5 260 0 min 441 lux 0,00 min 4,0 C -8,7 C
10.03.2009 18:46 4,3 C 4,2 C 98 % 1004 hPa 0,0 l/m 35,8 km/h (5 Bft) W22.5 260 0 min 142 lux 0,00 min 4,0 C -8,7 C
10.03.2009 19:01 4,2 C 4,2 C 96 % 1004 hPa 0,0 l/m 36,2 km/h (5 Bft) W45 260 0 min 15 lux 0,00 min 3,6 C -9,0 C
10.03.2009 19:16 4,1 C 4,1 C 96 % 1005 hPa 0,0 l/m 36,4 km/h (5 Bft) W45 270 0 min 0 lux 0,00 min 3,5 C -9,2 C
10.03.2009 19:31 3,7 C 3,8 C 95 % 1005 hPa 0,0 l/m 32,9 km/h (5 Bft) W45 275 0 min 0 lux 0,00 min 3,0 C -8,9 C
10.03.2009 19:46 3,5 C 3,8 C 95 % 1005 hPa 0,0 l/m 29,6 km/h (5 Bft) W45 265 0 min 0 lux 0,00 min 2,8 C -8,4 C
10.03.2009 20:01 3,4 C 3,6 C 94 % 1006 hPa 0,0 l/m 35,2 km/h (5 Bft) W45 270 0 min 0 lux 0,00 min 2,5 C -9,9 C
10.03.2009 20:16 3,2 C 3,4 C 95 % 1006 hPa 0,0 l/m 27,1 km/h (4 Bft) W67.5 280 0 min 0 lux 0,00 min 2,5 C -8,1 C
10.03.2009 20:31 3,0 C 3,2 C 95 % 1006 hPa 0,0 l/m 37,3 km/h (5 Bft) W45 275 0 min 0 lux 0,00 min 2,3 C -10,9 C
10.03.2009 20:46 2,9 C 2,9 C 96 % 1007 hPa 0,0 l/m 26,2 km/h (4 Bft) W-NW22.5 285 0 min 0 lux 0,00 min 2,3 C -8,2 C
10.03.2009 21:01 2,7 C 2,6 C 95 % 1007 hPa 0,0 l/m 29,3 km/h (5 Bft) W-NW67.5 290 0 min 0 lux 0,00 min 2,0 C -9,4 C
10.03.2009 21:16 2,5 C 2,4 C 96 % 1007 hPa 0,0 l/m 19,8 km/h (3 Bft) W-NW67.5 300 0 min 0 lux 0,00 min 1,9 C -6,3 C
10.03.2009 21:31 2,3 C 2,3 C 96 % 1007 hPa 0,0 l/m 18,0 km/h (3 Bft) W-NW67.5 285 0 min 0 lux 0,00 min 1,7 C -5,7 C
10.03.2009 21:46 2,2 C 2,1 C 97 % 1008 hPa 0,0 l/m 21,6 km/h (4 Bft) W-NW67.5 300 0 min 0 lux 0,00 min 1,8 C -7,5 C
10.03.2009 22:01 2,0 C 1,9 C 97 % 1008 hPa 0,0 l/m 33,4 km/h (5 Bft) W-NW67.5 300 0 min 0 lux 0,00 min 1,6 C -11,5 C
10.03.2009 22:16 1,9 C 1,8 C 97 % 1008 hPa 0,0 l/m 27,5 km/h (4 Bft) W-NW67.5 300 0 min 0 lux 0,00 min 1,5 C -10,0 C
10.03.2009 22:31 1,9 C 1,7 C 97 % 1009 hPa 0,3 l/m 17,8 km/h (3 Bft) NW67.5 315 0 min 0 lux 15,00 min 1,5 C -6,2 C
10.03.2009 22:45 1,9 C 1,6 C 97 % 1009 hPa 0,0 l/m 37,2 km/h (5 Bft) NW67.5 325 0 min 0 lux 0,00 min 1,5 C -12,5 C
10.03.2009 23:01 1,9 C 1,6 C 96 % 1009 hPa 0,0 l/m 29,8 km/h (5 Bft) NW67.5 325 0 min 0 lux 0,00 min 1,3 C -10,7 C
10.03.2009 23:16 1,9 C 1,6 C 96 % 1010 hPa 0,0 l/m 20,7 km/h (4 Bft) NW45 315 0 min 0 lux 0,00 min 1,3 C -7,5 C
10.03.2009 23:31 1,9 C 1,6 C 95 % 1010 hPa 0,0 l/m 28,1 km/h (4 Bft) NW67.5 320 0 min 0 lux 0,00 min 1,2 C -10,2 C
10.03.2009 23:46 1,9 C 1,6 C 95 % 1010 hPa 0,0 l/m 27,9 km/h (4 Bft) NW67.5 305 0 min 0 lux 0,00 min 1,2 C -10,1 C
10.03.2009 23:55 1,8 C 1,6 C 95 % 1010 hPa 0,0 l/m 25,5 km/h (4 Bft) NW67.5 310 0 min 0 lux 0,00 min 1,1 C -9,5 C
_ Min-Zeit 04:46 06:16 20:01 16:16 - 00:16 - - - - - 04:46 13:45
Minimum _ 0,3 C 0,1 C 94 % 1003 hPa - 14,0 km/h (3 Bft) - - - - - 0,0 C -12,6 C
_ Max-Zeit 18:46 18:46 05:31 00:01 11:31 13:45 - - 00:01 14:16 12:16 18:46 00:16
Maximum _ 4,3 C 4,2 C 99 % 1012 hPa 1,2 l/m 39,1 km/h
W-SW (6 Bft)
- - 0 min 23,9 klux 16,00 min 4,0 C -5,2 C
Durchschnitt _ 1,8 C 1,7 C 97 % 1008 hPa #12,6 l/m 26,4 km/h (4 Bft) SW - #0 min. 4,52 klux #8:15 h 1,4 C -9,4 C